TITAN 3C TRANSTAGE DEB, 33511

Orbit data source: Space-Track

TITAN 3C TRANSTAGE DEB, 33511 is space debris in GEO originally from a launch on Thu, 26 Sep 1968 UTC launched from the Air Force Eastern Test Range (AFETR). Debris objects in space refer to the collection of defunct objects orbiting the Earth. Examples of debris include non-operational satellites, rocket bodies, and fragments generated from explosions, collisions, or faulty payload assembly.

Loading next visibility...
Identifier
33511, 1968-081M
Orbit
GEO
Country
Flag of USUS
Related business
Manufacturer
Unknown
Mission
Spacecraft
Bus & Motor
Unknown
Mass
Unknown
Launch date (UTC)
1968-09-26 (58 years ago)
Launch vehicle
Unknown
Launch site
Air Force Eastern Test Range (AFETR)
Object type
Payload
Rocket body
Debris
Shape & HBR
Unknown shape, 1.1 m
Radar Cross Section
Medium (>0.1 m² and <1 m²)

Expand to show TLE details & history
Last TLE update: 11 hours ago

TLE from 11 hours ago
0 TITAN 3C TRANSTAGE DEB
1 33511U 68081M   26111.99372912 -.00000290  00000-0  00000+0 0  9990
2 33511   1.6285  35.2412 0136123 302.9083 188.2788  1.00770726 66852
Epoch: 2026-04-21T23:50Z
TLE epoch observation values (Epoch: 2026-04-21T23:50:58.195Z)
Latitude
1.21223°
Longitude
-41.57495°
Altitude
36,212.297 km
Speed
3.039 km/s
True Right ascension
11h 04m 54s
True Declination
1° 12' 40"
Sunlit
Object was in daylight at epoch
Visualization orbit readout
Latitude
Unknown
Longitude
Unknown
Altitude
Unknown
Speed
Unknown
Apparent Right ascension
Unknown
Apparent Declination
Unknown
Sunlit
N/A
Visualization observer readout
Local Sidereal Time
18:00:34
Azimuth
Unknown
Elevation
Unknown
Doppler factor
Unknown
Orbital elements
Apogee altitude
36,220.451 km
Perigee altitude
35,076.296 km
Semi-major axis
42,026.511 km
Eccentricity
0.01361
Inclination
1.6285°
RAAN
35.2412°
Arg. of periapsis
302.9083°
True anomaly
188.05792°
Mean anomaly
188.2788°
Eccentric anomaly
188.16799°
Mean motion
0.25192 °/min
Orbital period
1,429.04 mins
BSTAR
0
Loading maneuver chart data...
Computing Atmospheric mass density...

Documentation

Showing up to 5 results
|